Location: Ferques
(50.8300°N, 1.7599°E)
Time: 22:06:56
(UTC+00:00)

Cosmos 1420 Rocket - Pass Details

Date: 19 May 2025
Orbit: 750 x 777 km, 74.0° (Epoch: 18 June)

Event Time Altitude Azimuth Distance (km) Brightness Sun altitude
Rises 23:33:22 0° 335° (NNW) 3,271 8.5 -19.1°
Reaches altitude 10° 23:35:46 10° 336° (NNW) 2,339 7.6 -19.1°
Maximum altitude 23:41:06 87° 64° (ENE) 784 4.0 -19.2°
Enters shadow 23:43:28 34° 154° (SSE) 1,250 4.6 -19.2°
